Chillicothe, MO

6:51 PM CST on November 20, 2019 (GMT -0600)
Chillicothe

Weather History for KCDJ - September, 2019

Change the Weather History Date:

Thursday, September 12, 2019

  Actual Average (WUND) Record (WUND)
Temperature  
Mean Temperature 79 °F -  
Max Temperature 87 °F - - (-1)
Min Temperature 72 °F - - (-1)
Cooling Degree Days 14    
Growing Degree Days 29 (Base 50)    
Moisture  
Dew Point 71 °F    
Average Humidity 80    
Maximum Humidity 96    
Minimum Humidity 65    
Precipitation  
Precipitation 0.02 in - - ()
Sea Level Pressure  
Sea Level Pressure 29.97 in    
Wind  
Wind Speed 4 mph (SSW)    
Max Wind Speed 13 mph    
Max Gust Speed 25 mph    
Averages and records for this station are not official NWS values.
T = Trace of Precipitation, MM = Missing Value Source: NWS Daily Summary

Daily Weather History Graph

Daily Weather History Graph

Search for Another Location

Airport or City:

Astronomy

Sep. 12, 2019 Rise Set
Actual Time 6:52 AM CDT 7:28 PM CDT
Civil Twilight 6:25 AM CDT 7:55 PM CDT
Nautical Twilight 5:53 AM CDT 8:27 PM CDT
Astronomical Twilight 5:19 AM CDT 9:00 PM CDT
Moon 7:12 PM CDT (9/12) 5:13 AM CDT (9/12)
Length of Visible Light 13h 30m
Length of Day
12h 35m
Waxing Gibbous, 98% of the Moon is Illuminated
Sep 12
Waxing Gibbous
Sep 13
Full
Sep 21
Last Quarter
Sep 28
New
Oct 5
First Quarter

Hourly Weather History & Observations

Time (CDT) Temp. Heat Index Dew Point Humidity Pressure Visibility Wind Dir Wind Speed Gust Speed Precip Events Conditions
12:52 AM 75.0 °F - 71.1 °F 87% 29.95 in - Calm Calm - N/A   Unknown
1:52 AM 75.0 °F - 70.0 °F 84% 29.96 in - Calm Calm - N/A   Unknown
2:52 AM 72.0 °F - 70.0 °F 93% 29.97 in - Calm Calm - N/A   Unknown
3:52 AM 72.0 °F - 70.0 °F 93% 29.97 in - Calm Calm - N/A   Unknown
5:52 AM 73.9 °F - 69.1 °F 85% 29.98 in - SSE 3.5 mph - N/A   Unknown
6:52 AM 73.9 °F - 69.1 °F 85% 29.99 in - North - - N/A   Unknown
7:52 AM 73.9 °F - 70.0 °F 87% 29.99 in - South 5.8 mph - N/A   Unknown
8:52 AM 78.1 °F - 70.0 °F 76% 29.97 in - South 11.5 mph 20.7 mph N/A   Unknown
9:52 AM 80.1 °F 83.6 °F 71.1 °F 74% 29.97 in - South 10.4 mph - N/A   Unknown
10:52 AM 82.9 °F 88.0 °F 72.0 °F 69% 29.96 in - South 12.7 mph - N/A   Unknown
11:52 AM 84.9 °F 90.7 °F 72.0 °F 65% 29.95 in - South 11.5 mph 25.3 mph N/A   Unknown
12:52 PM 84.9 °F 91.4 °F 73.0 °F 67% 29.95 in - South 11.5 mph - N/A   Unknown
1:52 PM 86.0 °F 93.0 °F 73.0 °F 65% 29.95 in - SSW 6.9 mph - N/A   Unknown
2:52 PM 84.9 °F 90.7 °F 72.0 °F 65% 29.96 in - SSW 11.5 mph 18.4 mph N/A   Unknown
3:52 PM 82.9 °F 88.0 °F 72.0 °F 69% 29.97 in - SSW 8.1 mph 18.4 mph N/A   Unknown
4:52 PM 82.0 °F 86.7 °F 72.0 °F 71% 29.90 in - South 6.9 mph - N/A   Unknown
5:52 PM 80.1 °F 83.8 °F 72.0 °F 76% 29.95 in - Variable 3.5 mph 20.7 mph N/A   Unknown
6:52 PM 78.1 °F - 72.0 °F 81% 29.96 in - WSW 3.5 mph - N/A   Unknown
7:52 PM 75.9 °F - 72.0 °F 87% 29.98 in - WSW 3.5 mph - N/A   Unknown
8:52 PM 73.9 °F - 72.0 °F 93% 29.98 in - Variable 3.5 mph - 0.02 in   Unknown
9:52 PM 73.0 °F - 72.0 °F 96% 30.01 in - Calm Calm - N/A   Unknown
10:52 PM 73.0 °F - 71.1 °F 93% 30.01 in - Calm Calm - N/A   Unknown